Location: Mahoning Valley Cortese Observatory
(41.2500°N, 80.9800°W)
Time: 16:48:21
(UTC-05:00)

ISS - Visible Passes

Search period start: 24 February 2018 00:00
Search period end: 06 March 2018 00:00
Orbit: 402 x 407 km, 51.6° (Epoch: 25 February)

Date Brightness Start Highest point End Pass type
(mag) Time Alt. Az. Time Alt. Az. Time Alt. Az.
25 Feb -0.7 05:51:06 10° SSE 05:52:34 12° SE 05:54:01 10° ESE visible
26 Feb -3.2 06:33:11 10° SW 06:36:24 58° SE 06:39:38 10° ENE visible
27 Feb -2.0 05:41:21 10° SSW 05:44:15 29° SE 05:47:09 10° ENE visible
28 Feb -1.2 04:51:50 15° SE 04:52:09 16° SE 04:54:13 10° E visible
28 Feb -3.7 06:25:05 10° WSW 06:28:19 59° NNW 06:31:34 10° NE visible
01 Mar -3.7 05:34:47 35° SW 05:36:01 74° SE 05:39:17 10° ENE visible
02 Mar -1.8 04:44:53 28° E 04:44:53 28° E 04:46:51 10° ENE visible
02 Mar -2.7 06:17:34 11° W 06:20:18 30° NNW 06:23:16 10° NE visible
03 Mar -3.5 05:27:32 45° NW 05:27:53 48° NNW 05:31:05 10° NE visible
04 Mar -1.5 04:37:24 24° NE 04:37:24 24° NE 04:38:50 10° NE visible
04 Mar -2.0 06:10:03 11° WNW 06:12:22 20° NNW 06:14:52 10° NNE visible
05 Mar -2.4 05:19:50 26° NNW 05:19:50 26° NNW 05:22:41 10° NE visible
